TimeCDT,TemperatureF,Dew PointF,Humidity,Sea Level PressureIn,VisibilityMPH,Wind Direction,Wind SpeedMPH,Gust SpeedMPH,PrecipitationIn,Events,Conditions,WindDirDegrees,DateUTC
12:15 AM,30.2,26.6,86,30.16,10.0,Calm,Calm,-,N/A,,Overcast,0,2013-03-30 05:15:00
12:35 AM,30.2,26.6,86,30.15,10.0,Calm,Calm,-,N/A,,Overcast,0,2013-03-30 05:35:00
12:55 AM,30.2,26.6,86,30.15,10.0,Calm,Calm,-,N/A,,Overcast,0,2013-03-30 05:55:00
1:15 AM,32.0,26.6,80,30.14,10.0,Calm,Calm,-,N/A,,Overcast,0,2013-03-30 06:15:00
1:35 AM,32.0,26.6,80,30.13,10.0,Calm,Calm,-,N/A,,Overcast,0,2013-03-30 06:35:00
1:55 AM,32.0,26.6,80,30.13,10.0,Calm,Calm,-,N/A,,Overcast,0,2013-03-30 06:55:00
2:15 AM,32.0,26.6,80,30.12,10.0,Calm,Calm,-,N/A,,Overcast,0,2013-03-30 07:15:00
2:35 AM,32.0,28.4,87,30.11,10.0,Calm,Calm,-,N/A,,Overcast,0,2013-03-30 07:35:00
2:55 AM,32.0,28.4,87,30.10,10.0,Calm,Calm,-,N/A,,Overcast,0,2013-03-30 07:55:00
3:15 AM,32.0,28.4,87,30.09,10.0,Calm,Calm,-,N/A,,Overcast,0,2013-03-30 08:15:00
3:35 AM,32.0,28.4,87,30.09,10.0,Calm,Calm,-,N/A,,Overcast,0,2013-03-30 08:35:00
3:55 AM,32.0,30.2,93,30.08,10.0,Calm,Calm,-,N/A,,Overcast,0,2013-03-30 08:55:00
4:15 AM,33.8,28.4,81,30.08,10.0,Calm,Calm,-,N/A,,Overcast,0,2013-03-30 09:15:00
4:35 AM,32.0,28.4,87,30.08,10.0,Calm,Calm,-,N/A,,Overcast,0,2013-03-30 09:35:00
4:55 AM,35.6,28.4,75,30.07,10.0,SSE,4.6,-,N/A,Rain,Light Rain,160,2013-03-30 09:55:00
5:15 AM,41.0,28.4,61,30.06,10.0,South,4.6,-,N/A,,Light Drizzle,170,2013-03-30 10:15:00
5:35 AM,41.0,28.4,61,30.05,10.0,Calm,Calm,-,N/A,Rain,Light Rain,0,2013-03-30 10:35:00
5:55 AM,39.2,28.4,65,30.03,10.0,SSE,3.5,-,N/A,,Overcast,160,2013-03-30 10:55:00
6:15 AM,41.0,28.4,61,30.03,10.0,South,4.6,-,N/A,,Overcast,170,2013-03-30 11:15:00
6:35 AM,41.0,28.4,61,30.02,10.0,South,4.6,-,N/A,,Overcast,180,2013-03-30 11:35:00
6:55 AM,41.0,28.4,61,30.01,10.0,South,5.8,-,N/A,,Overcast,170,2013-03-30 11:55:00
7:15 AM,41.0,28.4,61,30.00,10.0,South,4.6,-,N/A,,Overcast,170,2013-03-30 12:15:00
7:35 AM,41.0,28.4,61,30.00,10.0,South,6.9,-,N/A,,Overcast,180,2013-03-30 12:35:00
7:55 AM,41.0,28.4,61,29.99,10.0,South,6.9,-,N/A,,Mostly Cloudy,190,2013-03-30 12:55:00
8:15 AM,41.0,28.4,61,29.98,10.0,South,6.9,-,N/A,,Overcast,180,2013-03-30 13:15:00
8:35 AM,42.8,28.4,57,29.97,10.0,South,8.1,-,N/A,,Overcast,180,2013-03-30 13:35:00
8:55 AM,42.8,30.2,61,29.97,10.0,South,5.8,-,N/A,Rain,Light Rain,180,2013-03-30 13:55:00
9:15 AM,42.8,30.2,61,29.96,10.0,South,3.5,-,N/A,,Light Drizzle,180,2013-03-30 14:15:00
9:35 AM,42.8,30.2,61,29.97,10.0,West,5.8,-,N/A,Rain,Light Rain,270,2013-03-30 14:35:00
9:55 AM,42.8,32.0,66,29.96,10.0,Calm,Calm,-,N/A,,Overcast,0,2013-03-30 14:55:00
10:15 AM,42.8,32.0,66,29.95,10.0,SSW,4.6,-,N/A,,Overcast,200,2013-03-30 15:15:00
10:35 AM,44.6,32.0,61,29.94,10.0,SSW,8.1,-,N/A,,Overcast,200,2013-03-30 15:35:00
10:55 AM,44.6,32.0,61,29.94,10.0,SSW,8.1,-,N/A,,Overcast,210,2013-03-30 15:55:00
11:15 AM,46.4,32.0,57,29.93,10.0,SW,10.4,16.1,N/A,,Overcast,220,2013-03-30 16:15:00
11:35 AM,46.4,32.0,57,29.93,10.0,SSW,6.9,-,N/A,,Overcast,210,2013-03-30 16:35:00
11:55 AM,46.4,32.0,57,29.92,10.0,SW,6.9,-,N/A,,Overcast,220,2013-03-30 16:55:00
12:15 PM,46.4,33.8,62,29.91,10.0,SW,8.1,-,N/A,,Overcast,230,2013-03-30 17:15:00
12:35 PM,48.2,33.8,58,29.91,10.0,WSW,6.9,-,N/A,,Overcast,240,2013-03-30 17:35:00
12:55 PM,48.2,35.6,62,29.90,10.0,SSW,5.8,-,N/A,Rain,Rain,210,2013-03-30 17:55:00
1:15 PM,46.4,37.4,71,29.89,7.0,SW,6.9,-,N/A,Rain,Light Rain,230,2013-03-30 18:15:00
1:35 PM,44.6,37.4,76,29.88,10.0,SSW,5.8,-,N/A,Rain,Light Rain,210,2013-03-30 18:35:00
1:55 PM,44.6,39.2,81,29.87,7.0,SSW,4.6,-,N/A,Rain,Light Rain,210,2013-03-30 18:55:00
2:15 PM,44.6,37.4,76,29.86,10.0,SSW,5.8,-,N/A,Rain,Light Rain,210,2013-03-30 19:15:00
2:35 PM,46.4,39.2,76,29.85,7.0,SSW,6.9,-,N/A,Rain,Rain,210,2013-03-30 19:35:00
2:55 PM,46.4,41.0,81,29.84,7.0,SSW,6.9,-,0.01,Rain,Light Rain,210,2013-03-30 19:55:00
3:15 PM,44.6,41.0,87,29.85,5.0,WSW,5.8,-,N/A,Rain,Rain,240,2013-03-30 20:15:00
3:35 PM,42.8,42.8,100,29.86,2.5,West,5.8,-,0.04,Rain,Rain,270,2013-03-30 20:35:00
3:55 PM,42.8,42.8,100,29.84,1.5,SSW,3.5,-,0.08,Rain,Rain,210,2013-03-30 20:55:00
4:15 PM,42.8,42.8,100,29.84,1.2,WSW,3.5,-,0.02,Rain,Light Rain,240,2013-03-30 21:15:00
4:35 PM,42.8,42.8,100,29.84,0.5,WSW,3.5,-,0.02,,Drizzle,240,2013-03-30 21:35:00
4:55 PM,42.8,42.8,100,29.84,0.5,Calm,Calm,-,0.03,,Drizzle,0,2013-03-30 21:55:00
5:15 PM,41.0,41.0,100,29.84,0.2,Calm,Calm,-,N/A,Fog,Fog,0,2013-03-30 22:15:00
5:35 PM,42.8,42.8,100,29.83,0.2,WSW,3.5,-,N/A,Fog,Fog,240,2013-03-30 22:35:00
5:55 PM,42.8,42.8,100,29.83,0.8,West,4.6,-,N/A,,Overcast,260,2013-03-30 22:55:00
6:15 PM,42.8,42.8,100,29.83,2.5,WSW,5.8,-,N/A,,Overcast,250,2013-03-30 23:15:00
6:35 PM,41.0,41.0,100,29.83,2.5,West,9.2,-,N/A,,Overcast,260,2013-03-30 23:35:00
6:55 PM,41.0,41.0,100,29.84,3.0,West,4.6,-,N/A,,Overcast,260,2013-03-30 23:55:00
7:15 PM,41.0,41.0,100,29.84,2.5,West,4.6,-,N/A,,Overcast,260,2013-03-31 00:15:00
7:35 PM,41.0,41.0,100,29.84,3.0,WNW,6.9,-,N/A,,Overcast,290,2013-03-31 00:35:00
7:55 PM,41.0,41.0,100,29.83,4.0,NW,4.6,-,N/A,,Overcast,320,2013-03-31 00:55:00
8:15 PM,39.2,39.2,100,29.84,3.0,WNW,3.5,-,N/A,,Overcast,290,2013-03-31 01:15:00
8:35 PM,39.2,39.2,100,29.84,3.0,WNW,5.8,-,N/A,,Overcast,300,2013-03-31 01:35:00
8:55 PM,39.2,39.2,100,29.84,4.0,WNW,6.9,-,N/A,,Overcast,300,2013-03-31 01:55:00
9:15 PM,41.0,37.4,87,29.84,7.0,NW,5.8,-,N/A,,Overcast,310,2013-03-31 02:15:00
9:35 PM,39.2,39.2,100,29.84,5.0,WNW,3.5,-,N/A,,Overcast,300,2013-03-31 02:35:00
9:55 PM,37.4,37.4,100,29.84,3.0,West,4.6,-,N/A,,Mostly Cloudy,270,2013-03-31 02:55:00
10:15 PM,35.6,35.6,100,29.84,0.5,Calm,Calm,-,N/A,Fog,Fog,0,2013-03-31 03:15:00
10:35 PM,33.8,33.8,100,29.84,0.5,Calm,Calm,-,N/A,Fog,Fog,0,2013-03-31 03:35:00
10:55 PM,32.0,32.0,100,29.84,0.2,Calm,Calm,-,N/A,Fog,Fog,0,2013-03-31 03:55:00
11:15 PM,32.0,32.0,100,29.83,0.8,SSE,3.5,-,N/A,,Overcast,160,2013-03-31 04:15:00
11:35 PM,32.0,32.0,100,29.83,1.2,Calm,Calm,-,N/A,,Overcast,0,2013-03-31 04:35:00
11:55 PM,32.0,32.0,100,29.82,1.5,Calm,Calm,-,N/A,,Overcast,0,2013-03-31 04:55:00